QPF
0.03 0.02 0.02 0.02 0.02 0.02 0.03 0.04 0.05 0.05 0.03 0.02 0.01 0.02 0.02 0.02 0.02 0.02 0.03 0.05 0.07 0.07 0.08 0.09 0.09 0.09 0.10 0.13 0.14 0.13 0.16 0.16 0.14 0.10 0.07 0.06 0.07 0.07
0.02 0.02 0.02 0.02 0.02 0.02 0.03 0.04 0.05 0.05 0.05 0.03 0.02 0.02 0.02 0.02 0.02 0.02 0.02 0.03 0.05 0.05 0.07 0.08 0.08 0.08 0.09 0.11 0.14 0.13 0.13 0.14 0.15 0.14 0.11 0.08 0.07 0.07
0.02 0.02 0.01 0.01 0.01 0.01 0.02 0.03 0.04 0.05 0.05 0.04 0.04 0.04 0.04 0.03 0.02 0.02 0.02 0.02 0.03 0.03 0.04 0.05 0.06 0.06 0.07 0.09 0.12 0.13 0.14 0.14 0.14 0.14 0.14 0.13 0.11 0.09
0.01 0.01 0.01 0.01 0.01 0.01 0.02 0.03 0.04 0.05 0.05 0.04 0.04 0.04 0.04 0.04 0.03 0.02 0.02 0.02 0.02 0.03 0.03 0.04 0.05 0.06 0.07 0.09 0.11 0.13 0.14 0.13 0.13 0.14 0.14 0.13 0.13 0.12
0.02 0.02 0.01 0.01 0.01 0.01 0.01 0.02 0.03 0.04 0.05 0.05 0.05 0.05 0.04 0.04 0.04 0.03 0.03 0.03 0.04 0.04 0.04 0.04 0.05 0.06 0.08 0.10 0.12 0.14 0.15 0.14 0.13 0.13 0.13 0.12 0.12 0.12
0.02 0.02 0.02 0.01 0.01 0.01 0.02 0.02 0.03 0.04 0.05 0.06 0.06 0.05 0.06 0.06 0.06 0.05 0.03 0.03 0.04 0.05 0.06 0.05 0.05 0.06 0.07 0.09 0.12 0.13 0.15 0.15 0.15 0.14 0.13 0.12 0.11 0.10
0.02 0.02 0.02 0.02 0.03 0.03 0.03 0.03 0.04 0.05 0.05 0.06 0.07 0.07 0.06 0.07 0.07 0.06 0.04 0.04 0.04 0.04 0.05 0.06 0.07 0.07 0.08 0.09 0.12 0.14 0.15 0.16 0.16 0.16 0.15 0.12 0.11 0.10
0.02 0.02 0.02 0.02 0.02 0.03 0.04 0.03 0.04 0.05 0.06 0.07 0.07 0.07 0.06 0.05 0.06 0.07 0.06 0.05 0.05 0.05 0.07 0.08 0.09 0.09 0.11 0.13 0.14 0.16 0.15 0.16 0.16 0.15 0.16 0.14 0.12 0.11
0.03 0.03 0.03 0.03 0.03 0.02 0.02 0.02 0.03 0.03 0.04 0.05 0.06 0.06 0.05 0.05 0.05 0.06 0.07 0.06 0.04 0.04 0.07 0.09 0.10 0.11 0.12 0.14 0.14 0.15 0.16 0.16 0.16 0.14 0.14 0.14 0.13 0.12
0.03 0.02 0.02 0.03 0.02 0.02 0.02 0.02 0.02 0.02 0.02 0.03 0.04 0.04 0.04 0.05 0.06 0.07 0.07 0.06 0.05 0.05 0.07 0.09 0.10 0.11 0.12 0.12 0.13 0.14 0.16 0.17 0.17 0.14 0.12 0.11 0.11 0.10
0.03 0.02 0.02 0.02 0.03 0.03 0.03 0.03 0.03 0.02 0.03 0.04 0.04 0.05 0.05 0.06 0.06 0.07 0.07 0.06 0.06 0.07 0.08 0.09 0.11 0.11 0.11 0.12 0.14 0.15 0.15 0.17 0.16 0.14 0.11 0.09 0.08 0.09
0.03 0.03 0.03 0.02 0.03 0.04 0.04 0.05 0.04 0.04 0.04 0.05 0.06 0.06 0.06 0.06 0.06 0.06 0.06 0.07 0.07 0.07 0.08 0.08 0.10 0.10 0.11 0.11 0.14 0.16 0.16 0.17 0.17 0.14 0.10 0.08 0.08 0.07
0.04 0.04 0.03 0.03 0.04 0.05 0.05 0.05 0.05 0.05 0.05 0.06 0.07 0.07 0.07 0.06 0.06 0.06 0.06 0.08 0.08 0.08 0.07 0.08 0.10 0.09 0.10 0.11 0.12 0.14 0.14 0.15 0.15 0.13 0.10 0.07 0.06 0.06
0.05 0.05 0.04 0.04 0.05 0.06 0.06 0.06 0.06 0.06 0.07 0.08 0.08 0.07 0.07 0.08 0.07 0.07 0.08 0.08 0.09 0.09 0.08 0.09 0.09 0.09 0.08 0.09 0.10 0.11 0.11 0.12 0.11 0.10 0.10 0.09 0.08 0.07
0.07 0.07 0.06 0.06 0.06 0.08 0.08 0.07 0.07 0.07 0.07 0.07 0.08 0.07 0.06 0.07 0.07 0.09 0.10 0.09 0.10 0.10 0.10 0.09 0.09 0.09 0.09 0.08 0.08 0.08 0.09 0.10 0.10 0.09 0.08 0.08 0.07 0.07
0.06 0.06 0.06 0.06 0.05 0.08 0.10 0.08 0.07 0.07 0.07 0.07 0.07 0.07 0.07 0.07 0.07 0.08 0.09 0.09 0.10 0.11 0.10 0.11 0.11 0.11 0.10 0.09 0.08 0.07 0.07 0.08 0.09 0.09 0.08 0.07 0.06 0.06
0.08 0.08 0.07 0.07 0.08 0.08 0.08 0.08 0.07 0.08 0.08 0.07 0.06 0.06 0.07 0.07 0.08 0.08 0.08 0.09 0.09 0.08 0.09 0.10 0.11 0.11 0.10 0.08 0.07 0.06 0.06 0.07 0.06 0.07 0.07 0.06 0.05 0.04
0.09 0.09 0.08 0.08 0.09 0.09 0.08 0.08 0.08 0.08 0.09 0.08 0.06 0.06 0.07 0.07 0.07 0.08 0.08 0.08 0.07 0.07 0.07 0.07 0.07 0.07 0.08 0.07 0.06 0.05 0.05 0.06 0.06 0.06 0.06 0.05 0.04 0.04
0.09 0.09 0.08 0.08 0.09 0.09 0.09 0.09 0.09 0.09 0.10 0.09 0.08 0.08 0.07 0.07 0.07 0.07 0.08 0.08 0.07 0.07 0.07 0.06 0.06 0.05 0.05 0.05 0.05 0.05 0.04 0.04 0.05 0.05 0.05 0.04 0.05 0.04
0.09 0.11 0.10 0.09 0.08 0.08 0.08 0.08 0.09 0.09 0.10 0.10 0.09 0.08 0.07 0.07 0.08 0.08 0.07 0.07 0.07 0.07 0.07 0.07 0.06 0.05 0.05 0.04 0.04 0.04 0.04 0.04 0.04 0.05 0.05 0.05 0.05 0.05
0.07 0.09 0.10 0.10 0.09 0.08 0.08 0.08 0.08 0.08 0.08 0.08 0.07 0.06 0.06 0.07 0.07 0.07 0.07 0.07 0.07 0.06 0.05 0.05 0.05 0.05 0.05 0.05 0.05 0.05 0.06 0.07 0.06 0.05 0.04 0.05 0.04 0.04
0.05 0.06 0.07 0.08 0.09 0.09 0.09 0.08 0.08 0.08 0.08 0.07 0.06 0.05 0.05 0.05 0.06 0.06 0.06 0.07 0.06 0.06 0.05 0.05 0.04 0.04 0.05 0.05 0.05 0.05 0.05 0.06 0.07 0.07 0.06 0.04 0.03 0.03
0.04 0.04 0.05 0.05 0.07 0.07 0.08 0.09 0.09 0.08 0.07 0.07 0.06 0.05 0.05 0.05 0.05 0.05 0.06 0.06 0.06 0.06 0.05 0.05 0.05 0.04 0.04 0.04 0.05 0.05 0.05 0.05 0.05 0.06 0.06 0.05 0.04 0.03
MSLP
1011.02 1011.52 1011.92 1012.24 1012.51 1012.78 1013.06 1013.40 1013.80 1014.26 1014.76 1015.28 1015.78 1016.22 1016.59 1016.87 1017.07 1017.18 1017.23 1017.23 1017.19 1017.12 1017.01 1016.85 1016.65 1016.38 1016.05 1015.67 1015.22 1014.74 1014.23 1013.70 1013.15 1012.57 1011.94 1011.27 1010.53 1009.73
1010.33 1010.86 1011.29 1011.66 1011.98 1012.30 1012.65 1013.06 1013.53 1014.05 1014.61 1015.17 1015.70 1016.16 1016.52 1016.77 1016.93 1017.00 1017.01 1016.97 1016.90 1016.81 1016.69 1016.55 1016.36 1016.11 1015.80 1015.43 1015.01 1014.53 1014.02 1013.47 1012.89 1012.27 1011.60 1010.86 1010.06 1009.18
1009.61 1010.16 1010.63 1011.04 1011.42 1011.81 1012.23 1012.70 1013.24 1013.83 1014.44 1015.03 1015.57 1016.01 1016.35 1016.58 1016.69 1016.72 1016.68 1016.60 1016.51 1016.40 1016.28 1016.14 1015.97 1015.74 1015.46 1015.11 1014.70 1014.24 1013.73 1013.17 1012.57 1011.93 1011.21 1010.43 1009.56 1008.60
1008.86 1009.45 1009.96 1010.42 1010.86 1011.32 1011.81 1012.35 1012.95 1013.58 1014.22 1014.83 1015.37 1015.80 1016.11 1016.30 1016.37 1016.36 1016.29 1016.18 1016.07 1015.95 1015.83 1015.70 1015.54 1015.33 1015.07 1014.73 1014.33 1013.88 1013.37 1012.81 1012.21 1011.54 1010.81 1009.99 1009.07 1008.04
1008.14 1008.76 1009.32 1009.84 1010.34 1010.86 1011.41 1012.01 1012.65 1013.32 1013.98 1014.59 1015.12 1015.53 1015.81 1015.97 1016.02 1015.98 1015.88 1015.77 1015.64 1015.53 1015.41 1015.29 1015.13 1014.93 1014.66 1014.33 1013.93 1013.47 1012.96 1012.40 1011.80 1011.14 1010.40 1009.57 1008.63 1007.56
1007.49 1008.15 1008.75 1009.32 1009.88 1010.45 1011.05 1011.70 1012.37 1013.05 1013.71 1014.31 1014.83 1015.22 1015.49 1015.63 1015.66 1015.62 1015.53 1015.41 1015.30 1015.19 1015.08 1014.95 1014.79 1014.58 1014.30 1013.94 1013.53 1013.05 1012.53 1011.97 1011.38 1010.73 1010.01 1009.20 1008.26 1007.20
1006.97 1007.65 1008.29 1008.90 1009.50 1010.11 1010.75 1011.41 1012.09 1012.78 1013.43 1014.02 1014.51 1014.90 1015.15 1015.30 1015.35 1015.32 1015.25 1015.17 1015.08 1014.98 1014.88 1014.75 1014.57 1014.33 1014.01 1013.62 1013.16 1012.66 1012.12 1011.55 1010.96 1010.33 1009.65 1008.89 1008.00 1006.97
1006.60 1007.30 1007.97 1008.60 1009.23 1009.86 1010.50 1011.17 1011.85 1012.51 1013.14 1013.72 1014.20 1014.57 1014.84 1015.01 1015.09 1015.10 1015.08 1015.04 1014.99 1014.92 1014.82 1014.68 1014.48 1014.19 1013.83 1013.38 1012.87 1012.31 1011.74 1011.15 1010.57 1009.97 1009.34 1008.63 1007.83 1006.88
1006.42 1007.13 1007.80 1008.44 1009.06 1009.69 1010.33 1010.97 1011.62 1012.26 1012.87 1013.42 1013.89 1014.28 1014.56 1014.76 1014.89 1014.96 1015.00 1015.01 1015.00 1014.96 1014.88 1014.73 1014.50 1014.17 1013.75 1013.24 1012.66 1012.05 1011.42 1010.81 1010.22 1009.65 1009.06 1008.43 1007.72 1006.90
1006.45 1007.14 1007.79 1008.41 1009.01 1009.62 1010.22 1010.83 1011.44 1012.05 1012.62 1013.15 1013.61 1014.00 1014.32 1014.56 1014.74 1014.88 1014.98 1015.05 1015.09 1015.08 1015.01 1014.85 1014.59 1014.22 1013.75 1013.17 1012.53 1011.86 1011.19 1010.54 1009.94 1009.37 1008.82 1008.27 1007.66 1006.97
1006.66 1007.31 1007.92 1008.50 1009.07 1009.63 1010.19 1010.75 1011.31 1011.87 1012.41 1012.92 1013.37 1013.77 1014.11 1014.40 1014.63 1014.82 1014.98 1015.10 1015.18 1015.20 1015.14 1014.98 1014.70 1014.31 1013.79 1013.17 1012.48 1011.76 1011.04 1010.36 1009.72 1009.15 1008.63 1008.12 1007.60 1007.04
1007.00 1007.59 1008.15 1008.69 1009.20 1009.71 1010.21 1010.72 1011.24 1011.75 1012.25 1012.73 1013.18 1013.58 1013.94 1014.25 1014.52 1014.76 1014.96 1015.12 1015.23 1015.27 1015.22 1015.07 1014.79 1014.38 1013.85 1013.21 1012.49 1011.73 1010.98 1010.26 1009.60 1009.01 1008.48 1008.00 1007.55 1007.08
1007.40 1007.93 1008.43 1008.91 1009.37 1009.82 1010.27 1010.73 1011.20 1011.67 1012.14 1012.59 1013.02 1013.42 1013.79 1014.12 1014.41 1014.67 1014.89 1015.07 1015.20 1015.26 1015.22 1015.08 1014.81 1014.41 1013.88 1013.25 1012.53 1011.76 1010.99 1010.25 1009.56 1008.94 1008.40 1007.92 1007.49 1007.08
1007.78 1008.25 1008.70 1009.12 1009.53 1009.94 1010.34 1010.76 1011.18 1011.62 1012.05 1012.49 1012.90 1013.29 1013.65 1013.99 1014.29 1014.55 1014.78 1014.96 1015.09 1015.15 1015.12 1014.99 1014.74 1014.37 1013.87 1013.27 1012.58 1011.84 1011.07 1010.32 1009.62 1008.97 1008.40 1007.90 1007.46 1007.07
1008.07 1008.49 1008.89 1009.27 1009.64 1010.00 1010.37 1010.76 1011.15 1011.56 1011.97 1012.39 1012.79 1013.17 1013.53 1013.85 1014.14 1014.40 1014.61 1014.79 1014.91 1014.96 1014.94 1014.82 1014.60 1014.26 1013.82 1013.27 1012.63 1011.93 1011.21 1010.47 1009.76 1009.09 1008.49 1007.95 1007.49 1007.09
1008.23 1008.60 1008.96 1009.30 1009.64 1009.99 1010.33 1010.70 1011.08 1011.47 1011.87 1012.27 1012.66 1013.04 1013.39 1013.70 1013.98 1014.22 1014.42 1014.57 1014.67 1014.71 1014.69 1014.58 1014.39 1014.09 1013.71 1013.23 1012.66 1012.03 1011.36 1010.66 1009.97 1009.30 1008.67 1008.11 1007.61 1007.18
1008.25 1008.57 1008.89 1009.21 1009.53 1009.86 1010.20 1010.55 1010.92 1011.31 1011.71 1012.11 1012.50 1012.87 1013.22 1013.53 1013.80 1014.02 1014.20 1014.33 1014.41 1014.43 1014.40 1014.30 1014.13 1013.88 1013.55 1013.14 1012.65 1012.10 1011.49 1010.86 1010.20 1009.56 1008.93 1008.35 1007.83 1007.37
1008.13 1008.42 1008.71 1009.01 1009.31 1009.63 1009.96 1010.31 1010.68 1011.06 1011.46 1011.87 1012.27 1012.65 1013.01 1013.32 1013.59 1013.80 1013.97 1014.08 1014.14 1014.15 1014.10 1014.00 1013.84 1013.62 1013.34 1012.99 1012.58 1012.11 1011.58 1011.02 1010.43 1009.83 1009.24 1008.67 1008.14 1007.67
1007.95 1008.19 1008.46 1008.73 1009.02 1009.32 1009.64 1009.98 1010.35 1010.74 1011.15 1011.56 1011.97 1012.37 1012.73 1013.06 1013.34 1013.56 1013.72 1013.83 1013.87 1013.86 1013.80 1013.69 1013.53 1013.33 1013.08 1012.79 1012.44 1012.04 1011.60 1011.12 1010.61 1010.07 1009.53 1009.00 1008.49 1008.03
1007.75 1007.96 1008.18 1008.43 1008.69 1008.97 1009.28 1009.61 1009.97 1010.36 1010.77 1011.18 1011.61 1012.02 1012.41 1012.75 1013.05 1013.28 1013.45 1013.56 1013.59 1013.57 1013.49 1013.38 1013.22 1013.02 1012.79 1012.53 1012.23 1011.90 1011.53 1011.13 1010.70 1010.25 1009.77 1009.30 1008.85 1008.42
1007.61 1007.77 1007.95 1008.16 1008.39 1008.64 1008.92 1009.23 1009.57 1009.94 1010.34 1010.77 1011.20 1011.62 1012.02 1012.39 1012.71 1012.96 1013.15 1013.26 1013.30 1013.27 1013.19 1013.06 1012.89 1012.69 1012.47 1012.23 1011.97 1011.69 1011.38 1011.06 1010.70 1010.33 1009.94 1009.55 1009.15 1008.77
1007.53 1007.64 1007.78 1007.94 1008.13 1008.35 1008.60 1008.87 1009.18 1009.53 1009.91 1010.32 1010.75 1011.18 1011.60 1011.98 1012.32 1012.60 1012.80 1012.93 1012.98 1012.95 1012.87 1012.73 1012.56 1012.36 1012.14 1011.91 1011.68 1011.43 1011.18 1010.91 1010.63 1010.33 1010.02 1009.70 1009.38 1009.06
1007.51 1007.57 1007.67 1007.79 1007.94 1008.11 1008.31 1008.55 1008.82 1009.14 1009.49 1009.88 1010.29 1010.72 1011.14 1011.53 1011.89 1012.18 1012.41 1012.56 1012.62 1012.61 1012.53 1012.40 1012.23 1012.03 1011.82 1011.60 1011.38 1011.17 1010.95 1010.73 1010.51 1010.28 1010.03 1009.78 1009.52 1009.25
Thickness
5538 5536 5534 5533 5531 5531 5530 5529 5529 5535 5545 5549 5546 5546 5544 5544 5545 5544 5547 5549 5549 5551 5552 5554 5555 5557 5559 5560 5562 5564 5565 5566 5567 5567 5566 5566 5565 5564
5525 5523 5521 5520 5519 5518 5518 5518 5518 5519 5527 5535 5534 5534 5532 5532 5532 5532 5535 5536 5538 5540 5541 5543 5544 5546 5548 5549 5551 5552 5555 5556 5557 5558 5557 5556 5556 5555
5514 5512 5510 5508 5508 5507 5507 5507 5507 5507 5511 5520 5519 5519 5519 5520 5520 5520 5522 5524 5528 5529 5531 5532 5534 5536 5538 5540 5541 5543 5544 5546 5547 5547 5547 5547 5547 5547
5504 5501 5500 5498 5497 5497 5496 5497 5497 5497 5498 5504 5507 5505 5506 5507 5508 5509 5510 5512 5515 5519 5520 5523 5525 5526 5528 5530 5532 5533 5534 5535 5536 5537 5537 5538 5538 5537
5493 5492 5491 5488 5488 5487 5486 5486 5487 5487 5487 5489 5493 5493 5493 5493 5495 5497 5498 5501 5504 5507 5509 5513 5516 5517 5519 5521 5522 5524 5524 5525 5526 5527 5528 5528 5528 5527
5483 5481 5480 5479 5478 5477 5476 5476 5476 5476 5475 5476 5479 5481 5481 5481 5482 5484 5488 5490 5492 5495 5498 5501 5504 5506 5509 5511 5513 5515 5515 5515 5517 5518 5519 5518 5517 5517
5475 5473 5471 5469 5468 5466 5465 5466 5464 5464 5464 5464 5466 5469 5470 5470 5471 5472 5474 5478 5481 5482 5487 5490 5492 5496 5499 5502 5504 5505 5505 5506 5508 5508 5509 5508 5508 5508
5466 5465 5463 5460 5458 5456 5455 5454 5453 5453 5454 5454 5456 5458 5462 5461 5459 5460 5461 5465 5471 5473 5473 5478 5480 5485 5489 5492 5495 5496 5496 5497 5498 5498 5498 5498 5498 5498
5457 5456 5454 5452 5449 5448 5447 5445 5444 5443 5443 5443 5446 5449 5451 5452 5449 5450 5451 5455 5460 5462 5460 5467 5469 5474 5479 5482 5485 5487 5487 5489 5489 5489 5489 5489 5489 5490
5447 5446 5445 5444 5441 5439 5438 5438 5437 5437 5436 5435 5438 5441 5442 5442 5441 5442 5443 5445 5449 5450 5450 5456 5462 5465 5469 5473 5475 5478 5480 5482 5482 5482 5482 5481 5481 5481
5438 5436 5435 5434 5432 5429 5428 5428 5430 5431 5429 5429 5430 5432 5434 5434 5433 5432 5434 5436 5441 5445 5444 5448 5454 5456 5460 5464 5468 5470 5472 5473 5474 5474 5474 5473 5473 5472
5427 5426 5425 5423 5422 5420 5419 5420 5422 5424 5423 5423 5424 5425 5427 5429 5429 5429 5431 5432 5434 5437 5440 5441 5445 5446 5450 5456 5458 5461 5463 5464 5465 5466 5467 5466 5466 5465
5416 5417 5416 5414 5413 5412 5411 5412 5414 5414 5415 5416 5418 5420 5422 5424 5425 5426 5427 5428 5430 5433 5435 5435 5437 5438 5440 5446 5449 5452 5454 5456 5457 5459 5460 5460 5460 5459
5405 5406 5407 5406 5405 5404 5404 5405 5406 5405 5407 5409 5411 5414 5416 5418 5420 5421 5421 5422 5424 5428 5430 5431 5432 5434 5435 5438 5442 5444 5446 5448 5450 5452 5453 5453 5453 5452
5395 5396 5396 5396 5396 5397 5398 5398 5399 5400 5401 5402 5405 5408 5410 5412 5413 5414 5415 5416 5419 5421 5425 5427 5429 5430 5432 5434 5435 5437 5438 5440 5442 5444 5446 5447 5447 5446
5386 5387 5388 5389 5389 5390 5392 5393 5393 5394 5394 5396 5399 5401 5403 5404 5407 5409 5411 5413 5414 5417 5419 5420 5423 5425 5426 5428 5430 5432 5434 5435 5436 5437 5439 5439 5440 5439
5378 5379 5381 5382 5384 5385 5386 5387 5387 5387 5388 5390 5392 5394 5396 5399 5401 5403 5405 5407 5409 5412 5413 5414 5415 5417 5419 5422 5424 5427 5428 5429 5430 5431 5432 5433 5434 5434
5370 5372 5374 5375 5376 5377 5379 5380 5381 5381 5382 5383 5385 5388 5391 5394 5396 5398 5400 5402 5404 5406 5408 5409 5410 5412 5414 5415 5417 5421 5423 5424 5425 5425 5426 5427 5428 5429
5362 5364 5366 5367 5369 5370 5371 5372 5374 5375 5377 5378 5380 5383 5386 5389 5391 5393 5395 5397 5399 5401 5402 5404 5407 5411 5413 5414 5413 5414 5417 5419 5419 5419 5420 5421 5422 5423
5354 5356 5357 5359 5361 5363 5364 5366 5368 5370 5371 5373 5376 5379 5382 5384 5386 5388 5391 5393 5395 5396 5398 5399 5402 5405 5408 5409 5408 5408 5410 5412 5414 5414 5414 5414 5415 5415
5347 5348 5349 5351 5354 5356 5358 5360 5362 5364 5366 5369 5372 5375 5378 5380 5382 5384 5386 5388 5391 5392 5394 5395 5396 5398 5400 5402 5403 5404 5404 5405 5408 5409 5409 5409 5410 5411
5339 5341 5342 5344 5347 5350 5352 5354 5357 5359 5362 5364 5368 5371 5373 5375 5377 5380 5382 5384 5386 5387 5389 5390 5391 5394 5396 5399 5399 5399 5398 5399 5401 5402 5403 5405 5407 5408
5332 5334 5336 5339 5342 5344 5347 5350 5352 5355 5358 5360 5363 5365 5367 5370 5372 5375 5377 5379 5381 5383 5384 5386 5387 5389 5391 5392 5393 5393 5392 5394 5396 5398 5399 5400 5402 5403